FW5449 Weather Reports


time (UTC)temp
F
wind
direction
speed
knots
gust
knots
rain 1hr
in
rain 24hr
in
rain mn
in
humidity
%
barometer
mb
20260903021347 60 184 0.9 6.1 0.00 0.54 0.54 87 1009.3
20260903021104 60 180 0.9 0.9 0.00 0.54 0.54 86 1009.2
20260903020340 60 230 0.9 0.9 0.00 0.54 0.54 87 1009.2
20260903015838 60 220 0.9 0.9 0.00 0.54 0.54 87 1009.1
20260903015338 60 153 0.9 0.9 0.00 0.54 0.54 86 1009.2
20260903014834 60 168 0.9 0.9 0.00 0.54 0.54 87 1009.1
20260903014334 60 249 0.9 0.9 0.00 0.54 0.54 88 1009.0
20260903013830 60 168 0.9 0.9 0.00 0.54 0.54 88 1009.1
20260903013322 60 231 0.0 0.9 0.00 0.54 0.54 88 1009.0
20260903012823 60 276 0.0 0.9 0.00 0.54 0.54 88 1008.9
20260903012322 60 286 0.0 0.9 0.00 0.54 0.54 86 1008.9
20260903011824 60 238 0.0 0.9 0.00 0.54 0.54 87 1008.9
20260903011320 60 232 0.9 0.9 0.01 0.54 0.54 89 1008.9
20260903010821 60 266 0.9 0.9 0.01 0.54 0.54 89 1008.9
20260903010312 60 277 0.9 0.9 0.02 0.54 0.54 89 1008.9
20260903005813 60 235 0.0 0.9 0.03 0.54 0.54 91 1008.9
20260903005309 59 286 0.0 0.9 0.05 0.54 0.54 91 1008.9
20260903004807 59 270 0.0 0.9 0.07 0.54 0.54 89 1009.0
20260903004306 59 244 0.0 0.9 0.09 0.54 0.54 90 1008.8
20260903003806 59 276 0.0 0.9 0.11 0.54 0.54 91 1008.7
20260903003305 59 255 0.0 0.9 0.17 0.54 0.54 92 1008.5
20260903002807 59 271 0.0 0.9 0.19 0.54 0.54 92 1008.6
20260903002306 60 198 0.9 0.9 0.22 0.54 0.54 94 1008.6
20260903002029 60 172 0.9 0.9 0.22 0.54 0.54 94 1008.4
20260903001259 60 160 0.9 0.9 0.21 0.53 0.54 94 1008.3
20260903000801 59 156 0.9 0.9 0.22 0.53 0.53 94 1008.5
20260903000519 59 222 0.9 0.9 0.21 0.52 0.52 94 1008.4
20260903000024 59 225 0.9 0.9 0.21 0.51 0.51 94 1008.3
20260902235259 59 215 0.9 0.9 0.19 0.49 0.49 94 1008.3
20260902234801 59 222 0.9 0.9 0.17 0.47 0.47 94 1008.2
20260902234257 59 231 0.9 0.9 0.15 0.45 0.45 94 1008.1
20260902233801 59 203 0.0 0.9 0.13 0.43 0.43 93 1008.1
20260902233300 59 158 0.0 0.9 0.07 0.37 0.38 93 1008.0
20260902232757 60 183 0.0 0.9 0.05 0.35 0.35 93 1007.9
20260902232257 60 179 0.0 0.9 0.02 0.32 0.32 93 1007.9
20260902232023 60 150 0.0 0.9 0.02 0.32 0.32 93 1007.7
20260902231252 60 172 0.0 0.9 0.02 0.31 0.31 92 1007.7
20260902230753 60 149 0.0 0.9 0.02 0.31 0.31 92 1007.7
20260902230252 60 173 0.0 0.9 0.02 0.31 0.31 92 1007.6
20260902230015 60 125 0.0 0.9 0.02 0.30 0.30 92 1007.5
20260902225249 60 112 0.0 0.9 0.03 0.30 0.30 92 1007.6
20260902224751 60 107 0.0 0.9 0.03 0.30 0.30 91 1007.5
20260902224249 60 139 0.0 0.9 0.03 0.30 0.30 91 1007.5
20260902223753 60 137 0.0 0.9 0.03 0.30 0.30 91 1007.5
20260902223247 60 130 0.0 0.9 0.03 0.30 0.30 91 1007.5
20260902222747 60 126 0.0 0.9 0.03 0.30 0.30 91 1007.4
20260902222246 60 139 0.0 0.9 0.05 0.30 0.30 90 1007.3
20260902222007 60 134 0.0 0.9 0.06 0.30 0.30 91 1007.3
20260902221244 60 183 0.0 0.9 0.06 0.29 0.29 91 1007.2
20260902220742 60 161 0.0 0.9 0.06 0.29 0.29 91 1007.2
20260902220234 60 149 0.0 0.9 0.06 0.29 0.29 91 1007.1
20260902215955 60 109 0.0 0.9 0.05 0.28 0.29 91 1007.1
20260902215236 60 112 0.0 0.9 0.04 0.27 0.27 91 1007.3
20260902214731 60 143 0.0 0.9 0.04 0.27 0.27 91 1007.2
20260902214230 59 168 0.0 0.9 0.04 0.27 0.27 91 1007.1
20260902213949 59 118 0.0 0.9 0.04 0.27 0.27 91 1007.2
20260902213448 59 114 0.0 0.9 0.05 0.27 0.27 91 1007.2
20260902212725 59 117 0.0 0.9 0.05 0.27 0.27 90 1007.2
20260902212223 60 113 1.7 11.3 0.03 0.25 0.26 90 1007.1
20260902212210 60 114 5.2 13.0 0.02 0.24 0.24 90 1007.1
20260902211217 60 108 7.0 14.8 0.01 0.23 0.23 89 1007.1
20260902210717 60 147 7.8 14.8 0.01 0.23 0.23 89 1007.1
20260902210444 60 135 7.8 13.9 0.01 0.23 0.23 88 1007.0
20260902205719 60 116 7.0 13.0 0.01 0.23 0.23 89 1007.0
20260902205213 60 139 7.0 12.2 0.01 0.23 0.23 89 1007.0
20260902204934 60 150 6.1 13.0 0.01 0.23 0.23 89 1006.9
20260902204213 60 125 7.0 13.9 0.01 0.23 0.23 89 1006.9
20260902203713 60 121 7.8 13.9 0.01 0.23 0.23 89 1006.9
20260902203210 60 147 7.8 12.2 0.00 0.22 0.22 88 1006.9
20260902202711 60 133 7.8 12.2 0.00 0.22 0.22 89 1006.9
20260902202210 60 118 7.8 14.8 0.00 0.22 0.22 88 1006.9
20260902201709 60 112 8.7 14.8 0.00 0.22 0.22 88 1006.8
20260902201208 60 122 7.8 13.9 0.00 0.22 0.22 88 1006.7
20260902200711 60 112 7.8 15.6 0.00 0.22 0.22 88 1006.7
20260902200207 60 139 7.8 16.5 0.01 0.22 0.22 87 1006.8
20260902200158 60 150 7.0 16.5 0.01 0.22 0.22 88 1006.6
20260902195205 60 120 3.5 13.9 0.01 0.22 0.22 88 1006.7
20260902194705 60 111 0.0 7.8 0.01 0.22 0.22 88 1006.7
20260902194203 60 158 0.0 0.9 0.01 0.22 0.22 88 1006.6
20260902193705 60 134 0.0 0.9 0.02 0.22 0.22 88 1006.6
20260902193206 60 146 0.0 0.9 0.02 0.22 0.22 88 1006.6
20260902192702 60 146 0.0 0.9 0.02 0.22 0.22 88 1006.7
20260902192420 60 123 0.0 0.9 0.02 0.22 0.22 88 1006.7
20260902191702 60 102 0.0 0.9 0.02 0.22 0.22 89 1006.6
20260902191200 59 114 0.0 0.9 0.02 0.22 0.22 89 1006.6
20260902190658 59 152 0.0 0.9 0.02 0.22 0.22 90 1006.6
20260902190423 59 115 0.9 0.9 0.02 0.21 0.21 90 1006.6
20260902185700 59 111 0.9 0.9 0.02 0.21 0.21 90 1006.6
20260902185159 59 113 0.9 0.9 0.02 0.21 0.21 91 1006.7
20260902184658 59 97 0.9 0.9 0.02 0.21 0.21 91 1006.7
20260902184158 59 114 0.9 0.9 0.02 0.21 0.21 90 1006.5
20260902183659 59 127 0.9 0.9 0.01 0.20 0.20 91 1006.6
20260902183419 59 118 0.9 0.9 0.02 0.20 0.20 90 1006.8
20260902182656 59 151 0.0 0.9 0.04 0.20 0.20 90 1006.8
20260902182152 59 106 0.0 0.9 0.05 0.20 0.20 90 1006.7
20260902181652 59 111 0.9 0.9 0.06 0.20 0.20 90 1006.7
20260902181155 59 137 0.9 0.9 0.09 0.20 0.20 90 1006.7
20260902180654 59 116 0.9 0.9 0.11 0.20 0.20 90 1006.9
20260902180153 59 101 0.9 0.9 0.12 0.19 0.19 90 1006.8
20260902175650 58 118 0.9 0.9 0.14 0.19 0.19 89 1006.8
20260902175150 58 79 0.9 0.9 0.15 0.19 0.19 90 1006.8
20260902174912 58 114 0.9 0.9 0.15 0.19 0.19 90 1006.7
20260902174411 58 104 0.9 5.2 0.15 0.19 0.19 91 1006.7
20260902173647 58 96 1.7 5.2 0.15 0.19 0.19 90 1006.9
20260902173133 58 86 0.9 4.3 0.14 0.18 0.18 90 1007.1
20260902172622 58 110 2.6 6.1 0.12 0.16 0.16 89 1007.0
20260902172112 58 139 1.7 6.1 0.11 0.15 0.15 89 1006.9
20260902171603 58 119 0.9 4.3 0.10 0.13 0.14 89 1006.9
20260902171101 58 190 1.7 7.0 0.08 0.11 0.11 88 1007.0
20260902170601 58 152 2.6 7.0 0.05 0.08 0.08 88 1007.1
20260902170318 58 224 2.6 6.1 0.03 0.06 0.07 88 1007.0
20260902165558 58 205 2.6 5.2 0.03 0.05 0.05 87 1006.9
20260902165056 58 182 3.5 6.1 0.03 0.04 0.04 87 1006.8
20260902164554 59 208 3.5 7.0 0.04 0.04 0.04 86 1006.7
20260902164045 59 160 3.5 7.0 0.04 0.04 0.04 85 1006.7
20260902163543 59 149 2.6 6.1 0.04 0.04 0.04 85 1006.7
20260902163042 59 158 2.6 5.2 0.04 0.04 0.04 85 1006.6
20260902162542 59 137 4.3 11.3 0.04 0.04 0.04 84 1006.6
20260902162307 59 133 4.3 11.3 0.04 0.04 0.04 83 1006.6
20260902161539 59 154 3.5 7.8 0.03 0.03 0.03 85 1006.7
20260902161039 58 189 3.5 9.6 0.03 0.03 0.03 84 1006.7
20260902160759 59 149 4.3 9.6 0.03 0.03 0.03 83 1006.7
20260902160037 59 165 3.5 7.0 0.03 0.03 0.03 84 1006.8
20260902155537 59 149 2.6 6.1 0.02 0.02 0.02 82 1006.8
20260902155036 59 235 2.6 5.2 0.01 0.01 0.01 81 1007.0
20260902154535 60 191 3.5 6.1 0.00 0.00 0.00 79 1006.9
20260902154034 60 224 2.6 6.1 0.00 0.00 0.00 78 1006.9
20260902153534 60 201 2.6 7.8 0.00 0.00 0.00 78 1006.9
20260902153035 60 232 1.7 7.8 0.00 0.00 0.00 78 1006.8
20260902152535 60 186 1.7 3.5 0.00 0.00 0.00 79 1006.9
20260902152032 60 231 0.9 2.6 0.00 0.00 0.00 80 1006.9
20260902151533 60 131 0.9 2.6 0.00 0.00 0.00 79 1006.9
20260902151033 60 131 0.9 1.7 0.00 0.00 0.00 78 1006.9
20260902150529 60 131 0.0 1.7 0.00 0.00 0.00 80 1006.8
20260902150032 60 131 0.9 2.6 0.00 0.00 0.00 78 1006.9
20260902145529 60 131 1.7 3.5 0.00 0.00 0.00 76 1006.9
20260902145025 60 161 1.7 3.5 0.00 0.00 0.00 77 1006.9
20260902144529 59 160 0.9 3.5 0.00 0.00 0.00 79 1007.0
20260902144501 59 158 0.9 2.6 0.00 0.00 0.00 81 1007.0
20260902143505 59 158 1.7 2.6 0.00 0.00 0.00 80 1007.1
20260902143004 59 158 1.7 3.5 0.00 0.00 0.00 80 1007.2
20260902142504 59 154 1.7 3.5 0.00 0.00 0.00 81 1007.2
20260902141956 59 139 1.7 3.5 0.00 0.00 0.00 80 1007.3
20260902141446 59 135 1.7 3.5 0.00 0.00 0.00 80 1007.3
20260902140950 59 133 2.6 4.3 0.00 0.00 0.00 79 1007.5
20260902140446 59 139 2.6 4.3 0.00 0.00 0.00 80 1007.4
20260902135945 59 134 2.6 4.3 0.00 0.00 0.00 81 1007.4
20260902135447 59 134 1.7 3.5 0.00 0.00 0.00 81 1007.4
20260902135206 59 133 1.7 3.5 0.00 0.00 0.00 82 1007.5
20260902134430 59 143 1.7 3.5 0.00 0.00 0.00 83 1007.6
20260902133921 58 130 0.9 3.5 0.00 0.00 0.00 84 1007.5
20260902133423 58 131 0.9 3.5 0.00 0.00 0.00 85 1007.6
20260902132918 58 106 0.0 2.6 0.00 0.00 0.00 87 1007.7
20260902132418 57 129 0.0 1.7 0.00 0.00 0.00 88 1007.8
20260902131914 58 129 1.7 3.5 0.00 0.00 0.00 86 1007.8
20260902131407 58 129 2.6 4.3 0.00 0.00 0.00 86 1007.9
20260902130903 57 147 1.7 4.3 0.00 0.00 0.00 88 1007.9
20260902130402 57 143 0.9 2.6 0.00 0.00 0.00 90 1008.0
20260902125900 57 143 0.0 1.7 0.00 0.00 0.00 90 1008.1
20260902125622 57 143 0.0 0.0 0.00 0.00 0.00 90 1008.2
20260902124900 57 143 0.0 0.9 0.00 0.00 0.00 90 1008.2
20260902124352 57 143 0.0 0.9 0.00 0.00 0.00 90 1008.2
20260902123853 57 143 0.0 0.9 0.00 0.00 0.00 90 1008.3
20260902123832 57 143 0.0 1.7 0.00 0.00 0.00 90 1008.4
20260902122832 57 143 0.0 1.7 0.00 0.00 0.00 90 1008.4
20260902122324 57 143 0.0 0.9 0.00 0.00 0.00 90 1008.5
20260902122313 57 143 0.0 0.9 0.00 0.00 0.00 90 1008.5
20260902121317 57 143 0.0 0.9 0.00 0.00 0.00 90 1008.6
20260902121302 57 143 0.0 0.9 0.00 0.00 0.00 90 1008.7
20260902120305 57 143 0.0 1.7 0.00 0.00 0.00 90 1008.7
20260902115748 57 143 0.9 1.7 0.00 0.00 0.00 90 1008.8
20260902115236 57 143 0.0 1.7 0.00 0.00 0.00 91 1008.9
20260902114734 57 143 0.0 0.0 0.00 0.00 0.00 91 1009.0
20260902114231 57 143 0.0 0.0 0.00 0.00 0.00 91 1008.9
20260902113731 57 143 0.0 0.0 0.00 0.00 0.00 91 1009.0
20260902113217 57 143 0.0 0.0 0.00 0.00 0.00 91 1009.0
20260902112708 57 143 0.0 0.0 0.00 0.00 0.00 91 1009.1
20260902112201 57 143 0.0 0.0 0.00 0.00 0.00 93 1009.1
20260902111912 57 143 0.0 0.0 0.00 0.00 0.00 93 1009.1
20260902111142 57 143 0.0 0.0 0.00 0.00 0.00 93 1009.1
20260902110642 56 143 0.0 0.0 0.00 0.00 0.00 93 1009.3
20260902110142 57 143 0.0 0.0 0.00 0.00 0.00 92 1009.4
20260902105627 57 143 0.0 0.0 0.00 0.00 0.00 91 1009.4
20260902105107 56 143 0.0 0.0 0.00 0.00 0.00 91 1009.5
20260902104603 56 143 0.0 0.0 0.00 0.00 0.00 91 1009.6
20260902104315 56 143 0.0 0.0 0.00 0.00 0.00 91 1009.7
20260902103539 56 143 0.0 0.0 0.00 0.00 0.00 90 1009.6
20260902103255 56 143 0.0 0.0 0.00 0.00 0.00 90 1009.7
20260902102531 56 143 0.0 0.0 0.00 0.00 0.00 90 1009.8
20260902102020 56 143 0.0 0.0 0.00 0.00 0.00 91 1009.8
20260902101519 56 143 0.0 0.0 0.00 0.00 0.00 90 1009.9
20260902101017 56 143 0.0 0.0 0.00 0.00 0.00 90 1009.8
20260902100515 56 143 0.0 0.0 0.00 0.00 0.00 90 1009.9
20260902100006 56 143 0.0 0.0 0.00 0.00 0.00 89 1009.9
20260902095503 56 143 0.0 1.7 0.00 0.00 0.00 89 1009.9
20260902095006 56 143 0.9 1.7 0.00 0.00 0.00 88 1010.0
20260902094454 56 143 0.9 1.7 0.00 0.00 0.00 88 1010.1
20260902093952 56 143 0.9 1.7 0.00 0.00 0.00 88 1010.2
20260902093450 56 143 0.9 2.6 0.00 0.00 0.00 89 1010.3
20260902092950 56 143 0.9 2.6 0.00 0.00 0.00 89 1010.4
20260902092447 56 143 0.9 2.6 0.00 0.00 0.00 90 1010.5
20260902091942 56 143 0.9 2.6 0.00 0.00 0.00 89 1010.6
20260902091442 56 143 0.9 1.7 0.00 0.00 0.00 89 1010.6
20260902090946 56 143 0.9 1.7 0.00 0.00 0.00 89 1010.6
20260902090651 56 143 0.9 2.6 0.00 0.00 0.00 89 1010.6
20260902085926 56 143 1.7 2.6 0.00 0.00 0.00 90 1010.6
20260902085427 56 143 0.9 2.6 0.00 0.00 0.00 90 1010.7
20260902085410 56 143 0.9 2.6 0.00 0.00 0.00 90 1010.7
20260902084419 55 143 0.9 1.7 0.00 0.00 0.00 89 1010.8
20260902084141 55 143 1.7 3.5 0.00 0.00 0.00 90 1010.8
20260902083418 55 143 1.7 3.5 0.00 0.00 0.00 90 1010.8
20260902082917 55 143 0.9 2.6 0.00 0.00 0.00 90 1010.9
20260902082412 54 143 0.9 2.6 0.00 0.00 0.00 91 1010.9
20260902081906 54 143 0.0 1.7 0.00 0.00 0.00 92 1010.9
20260902081355 53 143 0.9 2.6 0.00 0.00 0.00 92 1010.8
20260902080836 53 143 0.0 2.6 0.00 0.00 0.00 91 1010.9
20260902080338 54 143 0.0 0.9 0.00 0.00 0.00 91 1010.9
20260902080049 54 143 0.0 1.7 0.00 0.00 0.00 90 1010.9
20260902075327 54 143 0.9 2.6 0.00 0.00 0.00 89 1010.9
20260902074814 55 143 0.9 2.6 0.00 0.00 0.00 90 1010.9
20260902074534 55 136 0.0 2.6 0.00 0.00 0.00 89 1010.9
20260902073814 55 262 0.0 0.0 0.00 0.00 0.00 90 1010.9
20260902073311 55 263 0.0 0.0 0.00 0.00 0.00 90 1011.0
20260902072753 55 262 0.0 0.0 0.00 0.00 0.00 90 1011.0
20260902072254 55 262 0.0 0.0 0.00 0.00 0.00 90 1011.1
20260902071741 55 262 0.0 0.0 0.00 0.00 0.00 90 1011.1
20260902071238 55 263 0.0 0.0 0.00 0.00 0.00 90 1011.2
20260902070738 55 263 0.0 0.0 0.00 0.00 0.00 89 1011.2
20260902070234 56 263 0.0 0.0 0.00 0.00 0.00 88 1011.2
20260902065732 57 262 0.0 0.0 0.00 0.00 0.00 87 1011.2
20260902065225 57 262 0.0 0.0 0.00 0.00 0.00 87 1011.2
20260902064717 57 263 0.0 0.0 0.00 0.00 0.00 87 1011.2
20260902064211 57 263 0.0 0.0 0.00 0.00 0.00 86 1011.2
20260902063702 58 262 0.0 0.0 0.00 0.00 0.00 86 1011.2
20260902063154 58 262 0.0 0.0 0.00 0.00 0.00 85 1011.3
20260902062655 59 263 0.0 0.0 0.00 0.00 0.00 84 1011.4
20260902062407 59 263 0.0 0.0 0.00 0.00 0.00 84 1011.4
20260902061633 59 263 0.0 0.0 0.00 0.00 0.00 84 1011.5
20260902061533 60 263 0.0 0.0 0.00 0.00 0.00 83 1011.5
20260902061156 59 263 0.0 0.0 0.00 0.00 0.00 83 1011.5
20260902060104 60 263 0.0 0.0 0.00 0.00 0.00 82 1011.7
20260902055549 60 262 0.0 0.0 0.00 0.00 0.00 82 1011.7
20260902055050 61 263 0.0 0.0 0.00 0.00 0.00 82 1011.7
20260902054545 61 262 0.0 0.0 0.00 0.00 0.00 81 1011.8
20260902054041 61 262 0.0 0.9 0.00 0.00 0.00 81 1011.9
20260902053540 61 262 0.0 0.9 0.00 0.00 0.00 81 1011.9
20260902053311 61 262 0.0 1.7 0.00 0.00 0.00 80 1012.0
20260902052532 61 263 0.9 2.6 0.00 0.00 0.00 80 1012.0
20260902052257 61 263 2.6 4.3 0.00 0.00 0.00 80 1012.0
20260902051518 61 291 2.6 6.1 0.00 0.00 0.00 80 1012.0
20260902051020 61 291 2.6 6.1 0.00 0.00 0.00 81 1012.1
20260902050519 61 267 2.6 4.3 0.00 0.00 0.00 81 1012.1
20260902050018 61 254 1.7 4.3 0.00 0.00 0.00 81 1012.1
20260902045517 61 253 0.9 3.5 0.00 0.00 0.00 81 1012.1
20260902045015 61 239 0.9 2.6 0.00 0.00 0.00 81 1012.0
20260902044505 61 239 0.0 2.6 0.00 0.00 0.00 81 1012.1
20260902044008 60 239 0.0 0.9 0.00 0.00 0.00 81 1012.1
20260902043458 60 239 0.9 1.7 0.00 0.00 0.00 81 1012.1
20260902042952 61 239 0.9 1.7 0.00 0.00 0.00 81 1012.1
20260902042919 60 239 0.0 1.7 0.00 0.00 0.00 81 1012.0
20260902041942 60 239 1.7 3.5 0.00 0.00 0.00 81 1011.9
20260902041437 60 239 2.6 3.5 0.00 0.00 0.00 81 1011.9
20260902040933 60 239 1.7 3.5 0.00 0.00 0.00 81 1011.8
20260902040433 61 281 0.9 2.6 0.00 0.00 0.00 80 1011.8
20260902035929 61 281 0.0 1.7 0.00 0.00 0.00 80 1011.6
20260902035426 61 281 0.0 0.9 0.00 0.00 0.00 79 1011.5
20260902034913 61 281 0.0 0.9 0.00 0.00 0.00 79 1011.5
20260902034413 61 281 0.0 1.7 0.00 0.00 0.00 79 1011.4
20260902033904 62 281 0.0 1.7 0.00 0.00 0.00 78 1011.4
20260902033341 62 281 0.0 1.7 0.00 0.00 0.00 78 1011.4
20260902033327 62 281 0.9 1.7 0.00 0.00 0.00 78 1011.4
20260902032339 62 281 0.9 2.6 0.00 0.00 0.00 78 1011.4
20260902031834 62 281 0.9 2.6 0.00 0.00 0.00 78 1011.4
20260902031822 62 281 1.7 2.6 0.00 0.00 0.00 77 1011.3
20260902030827 62 281 1.7 3.5 0.00 0.00 0.00 77 1011.4
20260902030321 63 281 1.7 3.5 0.00 0.00 0.00 76 1011.3
20260902025819 63 281 1.7 3.5 0.00 0.00 0.00 76 1011.3
20260902025322 63 311 1.7 4.3 0.00 0.00 0.00 75 1011.4
20260902024810 64 286 2.6 5.2 0.00 0.00 0.00 75 1011.4
20260902024309 64 275 2.6 5.2 0.00 0.00 0.00 75 1011.4
20260902023808 64 291 2.6 7.0 0.00 0.00 0.00 74 1011.5
20260902023308 64 299 1.7 7.0 0.00 0.00 0.00 74 1011.5
20260902022807 64 281 2.6 4.3 0.00 0.00 0.00 73 1011.5
20260902022306 64 281 2.6 6.1 0.00 0.00 0.00 73 1011.5
20260902021810 64 260 1.7 6.1 0.00 0.00 0.00 73 1011.4